"Time","Temp","Dewpoint","Humidity","Pressure","Direction","Speed","Gust","Precip","PrecipRate"
"00:04:59","73.9","69.1","85","30.21","154","2.9","6","0.00","0.00"
"00:09:58","73.9","69.1","85","30.21","175","3","7","0.00","0.00"
"00:14:56","73.9","69.1","85","30.21","130","2","5.8","0.00","0.00"
"00:19:58","73.9","69.1","85","30.20","160","2.8","7","0.00","0.00"
"00:24:59","73.8","69","85","30.20","153","2.7","7","0.00","0.00"
"00:29:56","73.8","69","85","30.20","140","2.4","9","0.00","0.00"
"00:34:57","73.7","68.9","85","30.20","130","3.4","9.2","0.00","0.00"
"00:39:57","73.6","68.8","85","30.20","165","2.4","9","0.00","0.00"
"00:44:58","73.5","68.7","85","30.20","175","3.9","10","0.00","0.00"
"00:49:59","73.5","68.5","84.4","30.20","153","3.5","10.4","0.00","0.00"
"00:54:56","73.4","68.3","84","30.20","180","3.6","10.4","0.00","0.00"
"00:59:57","73.3","68.4","84.9","30.20","166","3","7","0.00","0.00"
"01:04:58","73.1","68.3","85","30.19","157","2.6","6.9","0.00","0.00"
"01:09:59","73","68.2","85","30.19","178","3.1","10.4","0.00","0.00"
"01:14:59","73","68.2","85","30.20","173","2.5","6","0.00","0.00"
"01:19:56","72.9","68.1","85","30.20","170","2.5","5","0.00","0.00"
"01:24:57","72.8","68.2","85.5","30.20","151","2.8","10","0.00","0.00"
"01:29:58","72.8","68.4","86","30.20","153","3.2","8.1","0.00","0.00"
"01:34:59","72.7","68.3","86","30.20","171","3","10.4","0.00","0.00"
"01:39:59","72.6","68.2","86","30.20","159","2.3","7","0.00","0.00"
"01:44:57","72.5","68.1","86","30.20","166","3.4","9.2","0.00","0.00"
"01:49:58","72.4","68.2","86.5","30.20","180","3.3","6.9","0.00","0.00"
"01:54:59","72.3","68.2","87","30.20","191","2","5","0.00","0.00"
"01:59:57","72.2","68.1","87","30.20","167","2.4","4","0.00","0.00"
"02:04:58","72.1","68","87","30.20","139","2","5","0.00","0.00"
"02:09:56","71.9","68.1","87.7","30.20","167","2.6","6","0.00","0.00"
"02:14:56","71.8","68.1","88","30.20","143","3.3","9.2","0.00","0.00"
"02:19:57","71.7","68","88","30.19","176","2.9","7","0.00","0.00"
"02:24:59","71.6","68","88.5","30.19","184","3.1","5","0.00","0.00"
"02:29:56","71.5","68.1","89","30.19","175","2.1","5","0.00","0.00"
"02:34:57","71.4","68","89","30.19","189","2","4.6","0.00","0.00"
"02:39:57","71.3","68","89.4","30.19","181","2","5","0.00","0.00"
"02:44:56","71.2","68.1","90","30.19","160","2.2","5","0.00","0.00"
"02:49:56","71.1","68","90","30.18","157","1.8","4","0.00","0.00"
"02:54:58","71","67.9","90","30.18","166","1.3","4","0.00","0.00"
"02:59:59","71","67.9","90","30.19","179","1.9","4","0.00","0.00"
"03:04:56","70.9","67.8","90","30.19","173","1.2","4","0.00","0.00"
"03:09:58","70.9","68","90.9","30.19","161","2.1","5","0.00","0.00"
"03:14:59","70.8","68","91","30.19","139","1.6","4","0.00","0.00"
"03:19:56","70.8","68","91","30.19","196","1.6","4","0.00","0.00"
"03:24:58","70.8","68","91","30.19","170","1.8","4","0.00","0.00"
"03:29:59","70.8","68.2","91.4","30.20","175","2","4","0.00","0.00"
"03:34:56","70.8","68.4","92","30.20","182","1.8","5","0.00","0.00"
"03:39:57","70.8","68.4","92","30.20","195","1.6","4","0.00","0.00"
"03:44:56","70.8","68.4","92","30.20","216","2.4","6","0.00","0.00"
"03:49:57","70.8","68.4","92","30.20","189","2.2","4","0.00","0.00"
"03:54:58","70.8","68.4","92","30.20","194","2.3","5","0.00","0.00"
"03:59:56","70.8","68.4","92","30.20","203","1.7","5","0.00","0.00"
"04:04:59","70.8","68.4","92","30.20","200","2.2","4","0.00","0.00"
"04:09:57","70.8","68.4","92","30.20","193","1.5","3.5","0.00","0.00"
"04:14:58","70.8","68.4","92","30.21","175","1.2","3.5","0.00","0.00"
"04:19:59","70.8","68.4","92","30.21","169","1.9","4","0.00","0.00"
"04:24:56","70.8","68.4","92","30.21","179","2.2","5","0.00","0.00"
"04:29:57","70.8","68.4","92","30.21","182","2.8","7","0.00","0.00"
"04:34:59","70.8","68.4","92","30.20","187","3.1","5.8","0.00","0.00"
"04:39:59","70.8","68.4","92","30.20","185","2.8","7","0.00","0.00"
"04:44:57","70.7","68.3","92","30.21","163","2.2","6","0.00","0.00"
"04:49:58","70.7","68.3","92","30.21","173","1.3","5","0.00","0.00"
"04:54:59","70.7","68.3","92","30.21","173","2.7","6","0.00","0.00"
"04:59:57","70.6","68.2","92","30.21","177","1.8","5","0.00","0.00"
"05:04:58","70.6","68.2","92","30.20","191","2.1","5","0.00","0.00"
"05:09:59","70.6","68.2","92","30.20","176","1.3","5","0.00","0.00"
"05:14:56","70.6","68.2","92","30.21","185","2.5","5","0.00","0.00"
"05:19:58","70.6","68.2","92","30.21","207","2.2","5","0.00","0.00"
"05:24:56","70.6","68.3","92.4","30.21","229","2.1","6","0.00","0.00"
"05:29:58","70.5","68.2","92.2","30.21","184","2.9","5.8","0.00","0.00"
"05:34:56","70.5","68.3","92.7","30.21","182","1.5","5","0.00","0.00"
"05:39:58","70.5","68.4","93","30.21","173","0.9","4.6","0.00","0.00"
"05:44:56","70.5","68.4","93","30.22","173","0.7","2.3","0.00","0.00"
"05:49:58","70.5","68.4","93","30.22","169","0.8","5","0.00","0.00"
"05:54:56","70.5","68.4","93","30.22","171","2","4.6","0.00","0.00"
"05:59:59","70.5","68.4","93","30.22","166","1.6","4","0.00","0.00"
"06:04:56","70.5","68.4","93","30.22","171","2.2","4","0.00","0.00"
"06:09:59","70.6","68.5","93","30.22","168","1.9","5","0.00","0.00"
"06:14:57","70.5","68.4","93","30.22","150","1.9","5","0.00","0.00"
"06:19:59","70.6","68.5","93","30.22","149","1.8","4","0.00","0.00"
"06:24:56","70.6","68.5","93","30.22","165","2.4","5","0.00","0.00"
"06:29:57","70.6","68.5","93","30.22","176","2.6","6","0.00","0.00"
"06:34:59","70.6","68.5","93","30.21","172","1.7","5","0.00","0.00"
"06:39:59","70.6","68.5","93","30.21","173","1.6","4","0.00","0.00"
"06:44:56","70.6","68.5","93","30.22","192","1.6","4","0.00","0.00"
"06:49:58","70.6","68.5","93","30.22","192","1.6","5","0.00","0.00"
"06:54:59","70.6","68.5","93","30.22","192","0.8","2.3","0.00","0.00"
"06:59:56","70.7","68.8","93.4","30.22","192","1.1","3.5","0.00","0.00"
"07:04:58","70.8","68.7","93","30.21","191","1.3","3.5","0.00","0.00"
"07:09:59","71","68.9","93","30.21","165","2","4","0.00","0.00"
"07:14:59","71.1","68.9","92.8","30.22","189","2.2","5","0.00","0.00"
"07:19:57","71.1","68.7","92","30.22","185","3.1","7","0.00","0.00"
"07:24:58","71.1","68.7","92","30.22","203","1.8","5","0.00","0.00"
"07:29:59","71.1","68.9","92.5","30.23","192","1.3","4","0.00","0.00"
"07:34:57","71.2","68.8","92","30.23","147","0.7","3.5","0.00","0.00"
"07:39:58","71.2","68.8","92","30.23","148","0.8","3.5","0.00","0.00"
"07:44:55","71.3","68.9","92","30.23","150","1.5","3.5","0.00","0.00"
"07:49:57","71.3","68.9","92","30.23","155","1.1","3.5","0.00","0.00"
"07:54:59","71.4","69.1","92.2","30.23","160","1","3.5","0.00","0.00"
"07:59:58","71.5","69.1","92","30.23","161","1.3","3.5","0.00","0.00"
"08:04:59","71.6","69.2","92","30.23","162","2","4","0.00","0.00"
"08:09:57","71.7","69.3","92","30.23","163","0.6","2.3","0.00","0.00"
"08:14:58","71.8","69.3","92","30.23","175","1.3","3.5","0.00","0.00"
"08:19:56","71.8","69.2","91.5","30.23","163","1.6","3.5","0.00","0.00"
"08:24:58","71.8","69.3","91.7","30.23","160","1.1","3.5","0.00","0.00"
"08:29:56","71.9","69.6","92.3","30.23","159","0.4","2.3","0.00","0.00"
"08:34:57","72","69.9","92.8","30.23","155","1.1","3.5","0.00","0.00"
"08:39:58","72.1","70","93","30.23","157","1.4","4","0.00","0.00"
"08:44:57","72","69.9","93","30.23","175","1.9","3.5","0.00","0.00"
"08:49:59","71.9","69.8","93","30.23","175","1.4","3.5","0.00","0.00"
"08:54:58","71.9","70.1","93.9","30.23","178","1","2.3","0.01","0.01"
"08:59:57","71.9","70.1","94","30.24","177","1.2","3.5","0.02","0.02"
"09:04:59","71.9","70.3","94.7","30.24","178","0.1","1.2","0.02","0.02"
"09:09:57","72","70.5","94.9","30.24","178","0","0","0.02","0.02"
"09:14:58","72","70.5","95","30.24","177","0","2","0.03","0.03"
"09:19:56","72","70.4","94.6","30.23","161","1.4","4","0.03","0.03"
"09:24:57","72","70.6","95.3","30.23","116","2.1","4","0.03","0.03"
"09:29:59","72.2","70.8","95.3","30.23","120","1.5","3.5","0.03","0.03"
"09:34:56","72.3","70.9","95.3","30.23","151","1.7","4","0.03","0.03"
"09:39:57","72.4","71","95.4","30.23","129","2.6","6","0.03","0.03"
"09:44:58","72.4","71","95.1","30.23","128","2.1","6","0.03","0.03"
"09:49:56","72.5","71","95","30.23","121","3.3","6","0.03","0.03"
"09:54:57","72.7","71.3","95.2","30.23","139","2.7","5","0.03","0.03"
"09:59:58","73.1","71.7","95.5","30.23","181","2","6","0.03","0.02"
"10:04:56","73.1","71.5","94.6","30.22","140","3.3","6","0.03","0.01"
"10:09:57","73.1","71.4","94.3","30.22","194","2.7","6","0.03","0.01"
"10:14:58","73.4","71.9","95","30.22","203","1.8","6","0.03","0.01"
"10:19:56","73.6","71.6","93.4","30.22","185","3.6","6","0.03","0.00"
"10:24:58","73.7","71.6","93.3","30.22","159","2","4","0.03","0.00"
"10:29:56","73.8","71.5","92.8","30.23","176","2.7","9","0.03","0.00"
"10:34:57","73.7","71.2","92","30.23","177","3.4","9.2","0.03","0.00"
"10:39:58","73.7","71.2","92","30.23","183","2.6","4","0.03","0.00"
"10:44:57","74","71.6","92.5","30.23","174","1.6","3.5","0.03","0.00"
"10:49:56","74.1","71.5","91.5","30.23","159","2.6","7","0.03","0.00"
"10:54:58","74.2","71.6","91.6","30.23","180","2.3","4","0.03","0.00"
"10:59:57","74.5","71.7","91.2","30.23","189","3","6","0.03","0.00"
"11:04:58","74.6","71.5","90.1","30.23","181","3.4","8.1","0.03","0.00"
"11:09:59","74.7","71.5","89.7","30.23","168","3","7","0.03","0.00"
"11:14:56","75.1","71.7","89.3","30.23","175","3","6","0.03","0.00"
"11:19:58","75.4","71.5","87.7","30.22","168","3.4","9","0.03","0.00"
"11:24:56","75.8","72","87.8","30.22","165","2.6","6.9","0.03","0.00"
"11:29:57","76.5","73","88.9","30.22","184","2.7","6","0.03","0.00"
"11:34:59","77.5","73.6","87.8","30.22","201","3.5","11","0.04","0.00"
"11:39:55","78.3","73.6","85.4","30.22","201","4.7","11.5","0.04","0.01"
"11:44:57","78.4","73.1","83.9","30.22","185","3.4","10","0.04","0.01"
"11:49:59","78.3","73.2","84.2","30.22","188","3.3","9.2","0.04","0.01"
"11:54:57","78.4","73.2","84.3","30.22","212","3.6","9.2","0.04","0.01"
"11:59:59","78.3","72.6","82.8","30.22","191","4.2","9.2","0.04","0.01"
"12:04:56","78.4","73.1","83.7","30.22","195","3.5","8","0.04","0.01"
"12:09:56","78.8","72.7","81.6","30.22","177","4.1","9.2","0.04","0.01"
"12:14:56","79.2","73","81.3","30.22","190","4.7","9.2","0.04","0.01"
"12:19:56","79.2","72.3","79.5","30.21","186","4.4","9","0.04","0.01"
"12:24:57","79","72.9","81.8","30.21","183","2.2","9.2","0.04","0.01"
"12:29:57","79.5","73.2","81.1","30.21","194","4.4","10.4","0.04","0.01"
"12:34:57","79.9","73.2","80","30.21","187","3.2","11","0.04","0.01"
"12:39:57","80.4","73.4","79.3","30.21","201","4","11.5","0.04","0.00"
"12:44:57","80.9","73.2","77.6","30.21","193","3.5","13","0.04","0.00"
"12:49:59","80.9","72.4","75.4","30.20","179","4.2","12.7","0.04","0.00"
"12:54:59","81.3","73.3","76.8","30.20","180","3.4","12","0.04","0.00"
"12:59:59","81.6","72.4","73.7","30.20","173","4.8","11.5","0.04","0.00"
"13:04:59","81.4","72.1","73.5","30.19","180","3.5","10.4","0.04","0.00"
"13:09:56","81.2","72.1","74.1","30.19","201","5.1","10.4","0.04","0.00"
"13:14:56","81.4","72.8","75.2","30.19","192","3.7","10.4","0.04","0.00"
"13:19:57","81.9","73","74.5","30.19","188","5.1","13","0.04","0.00"
"13:24:57","82.3","72.4","72.2","30.19","176","3.7","10.4","0.04","0.00"
"13:29:58","82.5","72","70.8","30.19","197","4.5","10","0.04","0.00"
"13:34:57","82.6","73","72.7","30.18","172","3.2","8.1","0.04","0.00"
"13:39:58","82.8","72.2","70.6","30.18","172","3.5","7","0.04","0.00"
"13:44:59","82.6","71.1","68.2","30.18","171","4.2","7","0.04","0.00"
"13:49:59","82.5","71.5","69.4","30.18","183","4","9.2","0.04","0.00"
"13:54:59","83","72.3","70.2","30.18","191","4.7","10.4","0.04","0.00"
"13:59:59","83.5","71.4","67.2","30.18","195","5.8","12","0.04","0.00"
"14:04:59","83.1","70.8","66.5","30.18","212","5.1","12","0.04","0.00"
"14:09:57","82.7","71.3","68.5","30.18","212","4.5","10.4","0.04","0.00"
"14:14:56","82.5","70.7","67.8","30.18","199","5.2","11.5","0.04","0.00"
"14:19:57","82.2","70.5","67.8","30.18","176","4.3","11.5","0.04","0.00"
"14:24:57","82.7","71.8","69.8","30.18","195","3.6","13","0.04","0.00"
"14:29:58","83.3","71.4","67.4","30.18","186","4.3","9.2","0.04","0.00"
"14:34:59","83.4","71.3","67","30.17","208","4.4","12","0.04","0.00"
"14:39:58","83.3","71.2","67","30.17","194","5.8","15","0.04","0.00"
"14:44:59","83.8","71.2","65.8","30.17","181","6","16.1","0.04","0.00"
"14:49:56","83.7","70.9","65.5","30.17","198","5.2","10.4","0.04","0.00"
"14:54:57","83.7","70.8","65.2","30.17","173","3.9","7","0.04","0.00"
"14:59:58","83.3","70.2","64.9","30.17","175","4.9","13","0.04","0.00"
"15:04:58","82.7","70.3","66.2","30.17","170","3.9","9.2","0.04","0.00"
"15:09:59","83.1","71.6","68.1","30.17","194","3.1","7","0.04","0.00"
"15:14:59","83.6","70.5","64.8","30.17","175","5.2","11.5","0.04","0.00"
"15:19:59","83.3","70.5","65.3","30.17","201","2.7","7","0.04","0.00"
"15:24:55","83.2","71.4","67.7","30.17","216","2.4","6","0.04","0.00"
"15:29:56","83.3","71.5","67.7","30.17","201","2.6","6","0.04","0.00"
"15:34:57","83.4","71.3","67","30.17","180","4.1","12","0.04","0.00"
"15:39:56","84","71.2","65.4","30.17","205","3.9","11.5","0.04","0.00"
"15:44:57","84.5","72.3","67","30.17","197","3.1","6","0.04","0.00"
"15:49:59","84.8","71.3","64","30.17","174","3.7","9","0.04","0.00"
"15:54:59","84.7","71.4","64.7","30.17","195","3.7","9.2","0.04","0.00"
"15:59:56","84.6","71.6","65.1","30.17","173","2.3","7","0.04","0.00"
"16:04:57","84.6","71.2","64.2","30.17","172","3.6","8.1","0.04","0.00"
"16:09:59","85","71.9","64.9","30.17","195","4.2","8.1","0.04","0.00"
"16:14:56","85.7","72","63.8","30.17","204","4.1","9.2","0.04","0.00"
"16:19:57","86.1","72","62.8","30.16","176","4","9","0.04","0.00"
"16:24:58","86.3","72.2","63","30.16","155","3.9","11","0.04","0.00"
"16:29:59","86.1","71.1","61.1","30.16","197","5.2","13","0.04","0.00"
"16:34:56","85.9","71.4","62.1","30.16","197","5.4","12","0.04","0.00"
"16:39:57","85.6","71.5","62.9","30.16","187","4.5","13","0.04","0.00"
"16:44:56","85.3","70.9","62","30.16","170","5.1","12","0.04","0.00"
"16:49:58","85.1","71","62.8","30.16","186","4.1","10","0.04","0.00"
"16:54:59","84.7","70.5","62.8","30.16","188","5.4","11.5","0.04","0.00"
"16:59:56","84.1","70.1","62.9","30.16","163","4.4","10","0.04","0.00"
"17:04:58","84.1","71.2","65.4","30.15","196","3.2","11","0.04","0.00"
"17:09:56","84.5","71.5","65.1","30.15","186","3.2","9.2","0.04","0.00"
"17:14:57","85.4","72.4","65.1","30.15","184","3.2","6","0.04","0.00"
"17:19:58","86.3","72.5","63.6","30.15","164","4","9","0.04","0.00"
"17:24:59","86.5","71.3","60.7","30.15","182","4.9","12","0.04","0.00"
"17:29:56","86.4","71.3","60.9","30.15","188","5.4","12","0.04","0.00"
"17:34:57","86.3","71.6","61.8","30.15","193","4.4","10","0.04","0.00"
"17:39:56","86.3","71.1","60.6","30.15","175","4","10","0.04","0.00"
"17:44:57","86.4","71.6","61.4","30.15","163","3.5","10","0.04","0.00"
"17:49:58","86.4","71.5","61.2","30.15","182","4.7","9.2","0.04","0.00"
"17:54:59","86.3","72.1","62.8","30.15","166","4","11.5","0.04","0.00"
"17:59:56","86","71.9","63","30.15","171","2.9","6","0.04","0.00"
"18:04:58","85.6","71.6","63","30.15","185","3.8","9.2","0.04","0.00"
"18:09:59","85.5","71.1","62.2","30.15","178","4.7","11","0.04","0.00"
"18:14:56","85.3","71.1","62.5","30.15","194","4.6","11.5","0.04","0.00"
"18:19:57","85.3","71.5","63.5","30.15","171","2.9","7","0.04","0.00"
"18:24:59","85.4","71.9","64.1","30.15","186","3.7","9.2","0.04","0.00"
"18:29:59","85.2","71.3","63.3","30.15","185","4","9.2","0.04","0.00"
"18:34:56","85.1","71.3","63.6","30.14","180","4.2","10.4","0.04","0.00"
"18:39:56","84.7","71.1","63.7","30.14","177","5.3","12","0.04","0.00"
"18:44:57","84.3","70.8","64.1","30.14","196","5.1","10.4","0.04","0.00"
"18:49:58","83.9","71.1","65.6","30.14","187","3","7","0.04","0.00"
"18:54:56","83.7","71.2","66.3","30.14","203","3.2","7","0.04","0.00"
"18:59:58","83.5","71.1","66.4","30.14","185","2.4","5","0.04","0.00"
"19:04:59","83.3","70.7","65.9","30.14","191","3.3","7","0.04","0.00"
"19:09:57","83.1","70.7","66.4","30.14","177","3","6","0.04","0.00"
"19:14:57","83","70.8","66.8","30.14","170","3","6","0.04","0.00"
"19:19:58","83","70.6","66.2","30.14","186","3.7","7","0.04","0.00"
"19:24:59","82.9","70.6","66.5","30.14","184","3.4","10.4","0.04","0.00"
"19:29:56","82.8","70.6","66.7","30.14","161","3","7","0.04","0.00"
"19:34:57","82.7","70.7","67.2","30.14","189","4","8","0.04","0.00"
"19:39:57","82.6","70.6","67.2","30.14","163","3.1","7","0.04","0.00"
"19:44:58","82.6","70.6","67.2","30.14","161","2.4","7","0.04","0.00"
"19:49:59","82.6","71","68","30.13","159","2.5","5","0.04","0.00"
"19:54:56","82.5","70.9","68","30.13","183","3.4","10.4","0.04","0.00"
"19:59:57","82.3","70.8","68.2","30.13","186","2.7","9.2","0.04","0.00"
"20:04:59","82.1","70.9","69","30.13","149","2.5","6","0.04","0.00"
"20:09:57","82","70.8","69","30.13","171","2.7","6","0.04","0.00"
"20:14:58","81.9","70.7","69.1","30.13","185","2.8","6","0.04","0.00"
"20:19:57","81.7","70.9","69.8","30.13","196","1.3","3.5","0.04","0.00"
"20:24:59","81.5","70.8","70","30.13","194","1.2","3.5","0.04","0.00"
"20:29:57","81.3","70.6","70.1","30.14","194","1.3","3.5","0.04","0.00"
"20:34:57","81.1","70.8","71","30.14","194","1.5","4","0.04","0.00"
"20:39:58","80.9","70.6","71","30.14","194","0.4","2.3","0.04","0.00"
"20:44:58","80.8","70.6","71.2","30.14","194","0.7","2.3","0.04","0.00"
"20:49:57","80.6","70.7","72","30.14","194","0","1.2","0.04","0.00"
"20:54:56","80.4","70.5","72.1","30.14","194","0","1.2","0.04","0.00"
"20:59:57","80.1","70.7","73.2","30.14","194","0","1.2","0.04","0.00"
"21:04:56","79.5","70.7","74.5","30.14","194","0","0","0.04","0.00"
"21:09:57","78.7","70.5","76.1","30.14","194","0","0","0.04","0.00"
"21:14:59","78","70.4","77.5","30.15","194","0","0","0.04","0.00"
"21:19:58","77.4","70.2","78.6","30.15","194","0","0","0.04","0.00"
"21:24:58","77","70.2","79.5","30.15","194","0","0","0.04","0.00"
"21:29:57","76.6","70.2","80.5","30.15","194","0","0","0.04","0.00"
"21:34:57","76.3","70.3","81.7","30.15","194","0","0","0.04","0.00"
"21:39:59","76","70.1","82","30.15","194","0","0","0.04","0.00"
"21:44:59","75.8","70.3","83","30.15","194","0","0","0.04","0.00"
"21:49:58","75.5","70.2","83.8","30.15","194","0","0","0.04","0.00"
"21:54:57","75.3","70.1","84.1","30.15","194","0","0","0.04","0.00"
"21:59:56","75","70.2","85","30.15","194","0","0","0.04","0.00"
"22:04:59","74.8","70","85","30.15","194","0.1","1.2","0.04","0.00"
"22:09:58","74.6","70","85.5","30.15","189","0.2","3","0.04","0.00"
"22:14:57","74.8","70.3","86","30.16","188","1","3.5","0.04","0.00"
"22:19:56","75.2","70.4","85.2","30.16","176","0.8","4","0.04","0.00"
"22:24:57","75.6","70.6","84.5","30.16","142","1.2","3.5","0.04","0.00"
"22:29:56","75.9","70.6","83.8","30.16","143","1.2","3.5","0.04","0.00"
"22:34:59","76.2","70.7","83","30.16","143","0.9","3.5","0.04","0.00"
"22:39:57","76.2","70.7","83","30.16","144","0.1","2","0.04","0.00"
"22:44:58","76","70.5","83","30.16","144","0.6","2.3","0.04","0.00"
"22:49:57","75.4","70.2","84.1","30.15","144","0.4","1.2","0.04","0.00"
"22:54:57","74.8","70.2","85.4","30.15","144","0.7","2.3","0.04","0.00"
"22:59:56","74.6","70.2","86.1","30.15","143","0.5","2.3","0.04","0.00"
"23:04:58","74.8","70.6","86.8","30.15","143","0.8","2.3","0.04","0.00"
"23:09:57","74.9","70.4","86","30.15","146","0.5","3.5","0.04","0.00"
"23:14:56","75","70.5","86","30.15","147","0.4","3","0.04","0.00"
"23:19:59","75","70.7","86.4","30.15","159","1.4","3.5","0.04","0.00"
"23:24:58","75.2","71.1","87","30.15","149","1.5","3.5","0.04","0.00"
"23:29:57","75.4","71.1","86.5","30.15","156","0.9","4","0.04","0.00"
"23:34:57","75.4","71","86.3","30.15","159","0.7","3.5","0.04","0.00"
"23:39:59","75.4","71.3","87","30.15","164","1.2","4","0.04","0.00"
"23:44:57","75.4","71.3","87","30.16","158","2.2","4","0.04","0.00"
"23:49:56","75.4","71.3","87","30.16","166","3.6","7","0.04","0.00"
"23:54:59","75.4","71.1","86.5","30.16","186","3.1","6.9","0.04","0.00"
"23:59:58","75.3","71.2","87","30.16","169","2.2","6","0.04","0.00"
